CZ-6A DEB, 55536

Orbit data source: Space-Track

CZ-6A DEB, 55536 is space debris in SSO originally from a launch on Fri, 11 Nov 2022 UTC launched from the Taiyaun Space Center, China (TSC). Debris objects in space refer to the collection of defunct objects orbiting the Earth. Examples of debris include non-operational satellites, rocket bodies, and fragments generated from explosions, collisions, or faulty payload assembly.

Loading next visibility...
Identifier
55536, 2022-151YJ
Orbit
SSO
Country
Flag of CNCN / PRC
Related business
Manufacturer
SAST
Mission
Spacecraft
Bus & Motor
Unknown
Mass
Unknown
Launch date (UTC)
2022-11-11 (3 years ago)
Launch vehicle
Unknown
Launch site
Taiyaun Space Center, China (TSC)
Object type
Payload
Rocket body
Debris
Shape & HBR
Unknown shape, 0.1 m
Radar Cross Section
Small (<0.1 m²)

Expand to show TLE details & history
Last TLE update: 14 hours ago

TLE from 14 hours ago
0 CZ-6A DEB
1 55536U 22151YJ  26129.95641876  .00003383  00000-0  14218-2 0  9996
2 55536  98.7989 141.6268 0046253  65.2187 295.3794 14.25935624174993
Epoch: 2026-05-09T22:57Z
TLE epoch observation values (Epoch: 2026-05-09T22:57:14.580Z)
Latitude
-0.00009°
Longitude
-70.45035°
Altitude
794.151 km
Speed
7.464 km/s
True Right ascension
09h 26m 30s
True Declination
0° 00' 00"
Sunlit
Object was in daylight at epoch
Visualization orbit readout
Latitude
Unknown
Longitude
Unknown
Altitude
Unknown
Speed
Unknown
Apparent Right ascension
Unknown
Apparent Declination
Unknown
Sunlit
N/A
Visualization observer readout
Local Sidereal Time
20:41:38
Azimuth
Unknown
Elevation
Unknown
Doppler factor
Unknown
Orbital elements
Apogee altitude
835.716 km
Perigee altitude
769.291 km
Semi-major axis
7,180.641 km
Eccentricity
0.00463
Inclination
98.7989°
RAAN
141.6268°
Arg. of periapsis
65.2187°
True anomaly
294.89935°
Mean anomaly
295.3794°
Eccentric anomaly
295.13949°
Mean motion
3.56696 °/min
Orbital period
100.93 mins
BSTAR
0.0014218
Loading maneuver chart data...
Computing Atmospheric mass density...
Loading historical data...
Loading historical data...
Loading historical data...
Loading historical data...
Loading historical data...
Loading historical data...
Loading historical data...

Documentation

Showing up to 5 results
|